Miscellaneous Local Product
Issued by NWS Hastings, NE

Home | Current Version | Previous Version | Graphics & Text | Print | Product List | Glossary On
Versions: 1 2 3 4 5 6 7 8 9 10 11 12 13 14 15 16 17 18 19 20 21 22 23 24 25 26 27 28 29 30 31 32 33 34 35 36 37 38 39 40 41 42 43 44 45 46 47 48 49 50
000
AXUS43 KGID 010402
MISGRI

GID CWA HOURLY WEATHER ROUNDUP
NATIONAL WEATHER SERVICE HASTINGS NE
1000 PM CST SAT FEB 28 2015

NOTE: "FAIR" INDICATES FEW OR NO CLOUDS BELOW 12,000 FEET WITH NO
SIGNIFICANT WEATHER AND/OR OBSTRUCTIONS TO VISIBILITY.

...SOUTH CENTRAL NEBRASKA...

CITY           SKY/WX    TMP DP  RH WIND       PRES   REMARKS
GRAND ISLAND   FAIR      16  12  84 S9        30.29R WCI   4
HASTINGS       MOCLDY    18  13  80 S7        30.27S WCI   9
KEARNEY        PTCLDY    16  10  79 S9        30.25S WCI   4
ORD            PTCLDY    18   9  68 CALM      30.23R
YORK           MOCLDY    18  14  86 S7        30.31R WCI   8
AURORA         PTCLDY    17  13  85 S7        30.28S WCI   7
LEXINGTON      PTCLDY    16  13  86 S7        30.21F WCI   6
HOLDREGE       PTCLDY    17  13  84 S7        30.24S WCI   7
HEBRON         FLURRIES  20  15  81 CALM      30.34R

...NEBRASKA PANHANDLE...

CITY           SKY/WX    TMP DP  RH WIND       PRES   REMARKS
CHADRON        CLOUDY    21  12  68 NE10      30.15R WCI  10
ALLIANCE       PTCLDY    19  12  74 NE3       30.09R
SCOTTSBLUFF    PTCLDY    21  12  68 E9        30.08R WCI  11
SIDNEY         MOCLDY    18  13  80 SE3       30.07S

...WESTERN AND NORTH CENTRAL NEBRASKA...

CITY           SKY/WX    TMP DP  RH WIND       PRES   REMARKS
VALENTINE      CLEAR     21   6  52 N7        30.18S WCI  12
AINSWORTH      CLEAR     22   7  51 NE3       30.18R
ONEILL         PTCLDY    20  12  70 S7        30.21R WCI  11
BROKEN BOW     PTCLDY    17   9  70 CALM      30.19F
IMPERIAL         N/A     16  10  77 SE6       30.15R WCI   7
NORTH PLATTE   PTCLDY    17  10  74 S5        30.19R WCI  10
MCCOOK         CLOUDY    24  14  65 S7        30.22R WCI  16

...EASTERN NEBRASKA...

CITY           SKY/WX    TMP DP  RH WIND       PRES   REMARKS
NORFOLK        CLEAR     18  12  77 S13       30.27R WCI   5
SO SIOUX CITY  CLEAR     20  14  77 S9        30.32R WCI   9
COLUMBUS       CLEAR     19   9  63 S8        30.32R WCI   9
ALBION         CLEAR     14   9  79 SE5       30.27R WCI   6
OMAHA EPPLEY   FLURRIES  23  18  81 S10       30.37S WCI  12
OFFUTT AFB     CLOUDY    23  18  80 S6        30.36R WCI  16
MILLARD        FLURRIES  24  19  81 S6        30.36R WCI  16
LINCOLN        CLOUDY    22  15  75 SW5       30.36R WCI  16
NEBRASKA CITY  CLOUDY    22  17  81 S5        30.36S WCI  15
BEATRICE       CLOUDY    22  17  84 S5        30.35R WCI  15
FALLS CITY     PTCLDY    19  15  84 CALM      30.38R

...NORTHERN KANSAS...

CITY           SKY/WX    TMP DP  RH WIND       PRES   REMARKS
GOODLAND       CLOUDY    18  14  84 S8        30.13R WCI   8
HILL CITY      CLOUDY    20  14  77 SE5       30.26S WCI  13
NORTON         CLOUDY    19  12  73 SE6       30.23  WCI  11
PHILLIPSBURG   CLOUDY    23  18  80 SE3       30.29S
SMITH CENTER   CLOUDY    18  16  93 SE5       30.31R WCI  11
BELOIT         CLOUDY    21  16  79 CALM      30.33R
HAYS           CLOUDY    18   7  62 SE3       30.27S
RUSSELL        CLOUDY    19  16  88 S6        30.28R WCI  11
CONCORDIA      CLOUDY    20  17  88 CALM      30.33R
SALINA         MOCLDY    21  16  81 SE3       30.35R
TOPEKA         CLOUDY    23  18  81 SE3       30.39R



USA.gov is the U.S. government's official web portal to all federal, state and local government web resources and services.